Time,TemperatureF,DewpointF,PressureIn,WindDirection,WindDirectionDegrees,WindSpeedMPH,WindSpeedGustMPH,Humidity,HourlyPrecipIn,Conditions,Clouds,dailyrainin,SoftwareType,DateUTC
2013-04-05 00:02:00,32.0,25.0,-100.00,NW,325,6.0,9.0,76,0.00,,,0.00,,2013-04-05 05:02:00,
2013-04-05 00:12:00,32.0,25.0,-100.00,NNW,335,7.0,9.0,77,0.00,,,0.00,,2013-04-05 05:12:00,
2013-04-05 00:22:00,31.0,25.0,-100.00,NNW,340,6.0,10.0,77,0.00,,,0.00,,2013-04-05 05:22:00,
2013-04-05 00:32:00,31.0,25.0,-100.00,NNW,335,6.0,9.0,78,0.00,,,0.00,,2013-04-05 05:32:00,
2013-04-05 00:42:00,31.0,25.0,-100.00,NNW,335,4.0,8.0,78,0.00,,,0.00,,2013-04-05 05:42:00,
2013-04-05 00:52:00,31.0,25.0,-100.00,NW,320,4.0,6.0,79,0.00,,,0.00,,2013-04-05 05:52:00,
2013-04-05 01:02:00,31.0,25.0,-100.00,NNW,330,4.0,5.0,80,0.00,,,0.00,,2013-04-05 06:02:00,
2013-04-05 01:12:00,30.0,25.0,-100.00,WNW,300,2.0,6.0,80,0.00,,,0.00,,2013-04-05 06:12:00,
2013-04-05 01:22:00,30.0,25.0,-100.00,NNW,345,3.0,6.0,81,0.00,,,0.00,,2013-04-05 06:22:00,
2013-04-05 01:32:00,30.0,25.0,-100.00,NNW,335,4.0,6.0,81,0.00,,,0.00,,2013-04-05 06:32:00,
2013-04-05 01:42:00,29.0,25.0,-100.00,NNW,335,4.0,6.0,82,0.00,,,0.00,,2013-04-05 06:42:00,
2013-04-05 01:52:00,30.0,25.0,-100.00,NW,315,4.0,6.0,83,0.00,,,0.00,,2013-04-05 06:52:00,
2013-04-05 02:02:00,29.0,25.0,-100.00,NNW,340,4.0,5.0,83,0.00,,,0.00,,2013-04-05 07:02:00,
2013-04-05 02:12:00,29.0,25.0,-100.00,North,355,6.0,7.0,84,0.00,,,0.00,,2013-04-05 07:12:00,
2013-04-05 02:22:00,29.0,25.0,-100.00,North,0,5.0,7.0,83,0.00,,,0.00,,2013-04-05 07:22:00,
2013-04-05 02:32:00,29.0,25.0,-100.00,North,0,4.0,7.0,84,0.00,,,0.00,,2013-04-05 07:32:00,
2013-04-05 02:42:00,29.0,25.0,-100.00,North,355,6.0,7.0,84,0.00,,,0.00,,2013-04-05 07:42:00,
2013-04-05 02:52:00,29.0,25.0,-100.00,NNW,340,4.0,7.0,84,0.00,,,0.00,,2013-04-05 07:52:00,
2013-04-05 03:02:00,29.0,25.0,-100.00,NNW,345,4.0,7.0,85,0.00,,,0.00,,2013-04-05 08:02:00,
2013-04-05 03:12:00,29.0,25.0,-100.00,North,0,6.0,7.0,85,0.00,,,0.00,,2013-04-05 08:12:00,
2013-04-05 03:22:00,29.0,25.0,-100.00,North,350,4.0,6.0,85,0.00,,,0.00,,2013-04-05 08:22:00,
2013-04-05 03:32:00,28.0,25.0,-100.00,North,350,3.0,5.0,85,0.00,,,0.00,,2013-04-05 08:32:00,
2013-04-05 03:42:00,28.0,25.0,-100.00,North,0,6.0,7.0,85,0.00,,,0.00,,2013-04-05 08:42:00,
2013-04-05 03:52:00,29.0,25.0,-100.00,North,355,5.0,7.0,86,0.00,,,0.00,,2013-04-05 08:52:00,
2013-04-05 04:02:00,28.0,25.0,-100.00,North,0,4.0,6.0,86,0.00,,,0.00,,2013-04-05 09:02:00,
2013-04-05 04:12:00,28.0,25.0,-100.00,North,0,4.0,6.0,86,0.00,,,0.00,,2013-04-05 09:12:00,
2013-04-05 04:22:00,28.0,25.0,-100.00,North,0,6.0,7.0,86,0.00,,,0.00,,2013-04-05 09:22:00,
2013-04-05 04:33:00,29.0,25.0,-100.00,North,10,4.0,7.0,86,0.00,,,0.00,,2013-04-05 09:33:00,
2013-04-05 04:42:00,29.0,25.0,-100.00,NNE,20,4.0,6.0,87,0.00,,,0.00,,2013-04-05 09:42:00,
2013-04-05 04:52:00,28.0,25.0,-100.00,NNE,15,4.0,6.0,88,0.00,,,0.00,,2013-04-05 09:52:00,
2013-04-05 05:03:00,28.0,25.0,-100.00,North,5,4.0,5.0,88,0.00,,,0.00,,2013-04-05 10:03:00,
2013-04-05 05:12:00,28.0,25.0,-100.00,North,10,5.0,6.0,89,0.00,,,0.00,,2013-04-05 10:12:00,
2013-04-05 05:23:00,28.0,25.0,-100.00,North,10,4.0,6.0,89,0.00,,,0.00,,2013-04-05 10:23:00,
2013-04-05 05:32:00,28.0,25.0,-100.00,NNE,15,4.0,5.0,90,0.00,,,0.00,,2013-04-05 10:32:00,
2013-04-05 05:42:00,28.0,25.0,-100.00,NNE,25,6.0,6.0,90,0.00,,,0.00,,2013-04-05 10:42:00,
2013-04-05 05:52:00,28.0,25.0,-100.00,NNE,25,7.0,7.0,90,0.00,,,0.00,,2013-04-05 10:52:00,
2013-04-05 06:02:00,28.0,25.0,-100.00,NNE,30,6.0,7.0,89,0.00,,,0.00,,2013-04-05 11:02:00,
2013-04-05 06:12:00,28.0,25.0,-100.00,NNE,20,6.0,6.0,89,0.00,,,0.00,,2013-04-05 11:12:00,
2013-04-05 06:22:00,28.0,25.0,-100.00,NNE,20,6.0,7.0,89,0.00,,,0.00,,2013-04-05 11:22:00,
2013-04-05 06:32:00,27.0,25.0,-100.00,NNE,20,4.0,6.0,89,0.00,,,0.00,,2013-04-05 11:32:00,
2013-04-05 06:42:00,27.0,25.0,-100.00,NNE,20,4.0,6.0,89,0.00,,,0.00,,2013-04-05 11:42:00,
2013-04-05 06:52:00,27.0,25.0,-100.00,NNE,30,6.0,6.0,89,0.00,,,0.00,,2013-04-05 11:52:00,
2013-04-05 07:02:00,27.0,25.0,-100.00,NNE,30,4.0,5.0,90,0.00,,,0.00,,2013-04-05 12:02:00,
2013-04-05 07:12:00,27.0,25.0,-100.00,NE,40,5.0,6.0,90,0.00,,,0.00,,2013-04-05 12:12:00,
2013-04-05 07:22:00,27.0,23.0,-100.00,NE,40,4.0,6.0,86,0.00,,,0.00,,2013-04-05 12:22:00,
2013-04-05 07:32:00,28.0,23.0,-100.00,NE,40,4.0,4.0,84,0.00,,,0.00,,2013-04-05 12:32:00,
2013-04-05 07:42:00,28.0,23.0,-100.00,NE,40,6.0,7.0,82,0.00,,,0.00,,2013-04-05 12:42:00,
2013-04-05 07:52:00,29.0,23.0,-100.00,NE,45,6.0,7.0,80,0.00,,,0.00,,2013-04-05 12:52:00,
2013-04-05 08:02:00,29.0,23.0,-100.00,ENE,60,7.0,10.0,78,0.00,,,0.00,,2013-04-05 13:02:00,
2013-04-05 08:12:00,29.0,23.0,-100.00,ENE,65,6.0,9.0,76,0.00,,,0.00,,2013-04-05 13:12:00,
2013-04-05 08:22:00,30.0,23.0,-100.00,ENE,75,6.0,11.0,73,0.00,,,0.00,,2013-04-05 13:22:00,
2013-04-05 08:32:00,30.0,21.0,-100.00,East,80,7.0,9.0,70,0.00,,,0.00,,2013-04-05 13:32:00,
2013-04-05 08:42:00,31.0,21.0,-100.00,East,80,7.0,12.0,67,0.00,,,0.00,,2013-04-05 13:42:00,
2013-04-05 08:52:00,31.0,21.0,-100.00,East,80,8.0,12.0,65,0.00,,,0.00,,2013-04-05 13:52:00,
2013-04-05 09:02:00,32.0,21.0,-100.00,East,90,9.0,13.0,63,0.00,,,0.00,,2013-04-05 14:02:00,
2013-04-05 09:12:00,32.0,21.0,-100.00,East,90,10.0,13.0,62,0.00,,,0.00,,2013-04-05 14:12:00,
2013-04-05 09:22:00,33.0,19.0,-100.00,ESE,110,10.0,13.0,59,0.00,,,0.00,,2013-04-05 14:22:00,
2013-04-05 09:36:00,33.0,19.0,-100.00,ESE,105,9.0,13.0,58,0.00,,,0.00,,2013-04-05 14:36:00,
2013-04-05 09:42:00,34.0,21.0,-100.00,ESE,110,8.0,13.0,57,0.00,,,0.00,,2013-04-05 14:42:00,
2013-04-05 09:52:00,34.0,21.0,-100.00,ESE,115,10.0,14.0,57,0.00,,,0.00,,2013-04-05 14:52:00,
2013-04-05 10:02:00,34.0,21.0,-100.00,ESE,105,9.0,14.0,58,0.00,,,0.00,,2013-04-05 15:02:00,
2013-04-05 10:12:00,35.0,21.0,-100.00,East,100,9.0,12.0,57,0.00,,,0.00,,2013-04-05 15:12:00,
2013-04-05 10:23:00,35.0,21.0,-100.00,SE,130,8.0,14.0,56,0.00,,,0.00,,2013-04-05 15:23:00,
2013-04-05 10:33:00,36.0,23.0,-100.00,SE,130,9.0,12.0,57,0.00,,,0.00,,2013-04-05 15:33:00,
2013-04-05 10:42:00,36.0,23.0,-100.00,SE,135,12.0,14.0,57,0.00,,,0.00,,2013-04-05 15:42:00,
2013-04-05 10:53:00,36.0,23.0,-100.00,SE,125,9.0,13.0,56,0.00,,,0.00,,2013-04-05 15:53:00,
2013-04-05 11:02:00,36.0,23.0,-100.00,SE,135,9.0,12.0,56,0.00,,,0.00,,2013-04-05 16:02:00,
2013-04-05 11:13:00,36.0,23.0,-100.00,ESE,120,10.0,12.0,56,0.00,,,0.00,,2013-04-05 16:13:00,
2013-04-05 11:23:00,37.0,23.0,-100.00,SE,135,9.0,11.0,56,0.00,,,0.00,,2013-04-05 16:23:00,
2013-04-05 11:33:00,37.0,23.0,-100.00,ESE,115,7.0,10.0,56,0.00,,,0.00,,2013-04-05 16:33:00,
2013-04-05 11:42:00,38.0,23.0,-100.00,SE,130,7.0,10.0,56,0.00,,,0.00,,2013-04-05 16:42:00,
2013-04-05 11:52:00,38.0,23.0,-100.00,SE,135,10.0,13.0,54,0.00,,,0.00,,2013-04-05 16:52:00,
2013-04-05 12:03:00,38.0,23.0,-100.00,SE,135,9.0,14.0,54,0.00,,,0.00,,2013-04-05 17:03:00,
2013-04-05 12:12:00,40.0,25.0,-100.00,SSE,150,11.0,17.0,55,0.00,,,0.00,,2013-04-05 17:12:00,
2013-04-05 12:23:00,39.0,25.0,-100.00,SSE,155,12.0,14.0,54,0.00,,,0.00,,2013-04-05 17:23:00,
2013-04-05 12:32:00,39.0,25.0,-100.00,SE,140,10.0,16.0,54,0.00,,,0.00,,2013-04-05 17:32:00,
2013-04-05 12:45:00,39.0,23.0,-100.00,SE,130,10.0,15.0,53,0.00,,,0.00,,2013-04-05 17:45:00,
2013-04-05 12:52:00,39.0,25.0,-100.00,SSE,160,9.0,13.0,54,0.00,,,0.00,,2013-04-05 17:52:00,
2013-04-05 13:02:00,39.0,23.0,-100.00,SE,130,10.0,14.0,54,0.00,,,0.00,,2013-04-05 18:02:00,
2013-04-05 13:12:00,39.0,25.0,-100.00,SE,140,12.0,16.0,55,0.00,,,0.00,,2013-04-05 18:12:00,
2013-04-05 13:22:00,39.0,25.0,-100.00,SE,145,10.0,14.0,55,0.00,,,0.00,,2013-04-05 18:22:00,
2013-04-05 13:32:00,39.0,25.0,-100.00,South,175,8.0,12.0,54,0.00,,,0.00,,2013-04-05 18:32:00,
2013-04-05 13:42:00,39.0,23.0,-100.00,SSE,165,10.0,14.0,53,0.00,,,0.00,,2013-04-05 18:42:00,
2013-04-05 13:52:00,39.0,23.0,-100.00,South,170,10.0,13.0,53,0.00,,,0.00,,2013-04-05 18:52:00,
2013-04-05 14:02:00,39.0,25.0,-100.00,South,170,7.0,12.0,55,0.00,,,0.00,,2013-04-05 19:02:00,
2013-04-05 14:13:00,38.0,25.0,-100.00,SSW,200,12.0,20.0,58,0.00,,,0.00,,2013-04-05 19:13:00,
2013-04-05 14:22:00,36.0,27.0,-100.00,SE,135,9.0,16.0,68,0.00,,,0.00,,2013-04-05 19:22:00,
2013-04-05 14:33:00,36.0,28.0,-100.00,SSE,155,14.0,17.0,72,0.00,,,0.00,,2013-04-05 19:33:00,
2013-04-05 14:42:00,36.0,28.0,-100.00,SSE,160,11.0,15.0,76,0.00,,,0.00,,2013-04-05 19:42:00,
2013-04-05 14:52:00,35.0,30.0,-100.00,SSE,160,12.0,15.0,84,0.00,,,0.00,,2013-04-05 19:52:00,
2013-04-05 15:02:00,35.0,32.0,-100.00,SE,140,11.0,13.0,88,0.00,,,0.00,,2013-04-05 20:02:00,
2013-04-05 15:11:00,35.0,32.0,-100.00,SE,140,10.0,13.0,89,0.00,,,0.00,,2013-04-05 20:11:00,
2013-04-05 15:22:00,34.0,32.0,-100.00,SE,130,9.0,12.0,92,0.00,,,0.00,,2013-04-05 20:22:00,
2013-04-05 15:32:00,34.0,32.0,-100.00,SE,125,11.0,14.0,94,0.00,,,0.00,,2013-04-05 20:32:00,
2013-04-05 15:42:00,34.0,32.0,-100.00,ESE,115,7.0,14.0,95,0.00,,,0.00,,2013-04-05 20:42:00,
2013-04-05 15:52:00,33.0,32.0,-100.00,ESE,110,9.0,12.0,95,0.00,,,0.00,,2013-04-05 20:52:00,
2013-04-05 16:02:00,33.0,32.0,-100.00,ESE,105,7.0,12.0,95,0.00,,,0.00,,2013-04-05 21:02:00,
2013-04-05 16:12:00,33.0,32.0,-100.00,ESE,120,9.0,12.0,96,0.00,,,0.00,,2013-04-05 21:12:00,
2013-04-05 16:23:00,34.0,32.0,-100.00,ESE,110,9.0,14.0,96,0.00,,,0.00,,2013-04-05 21:23:00,
2013-04-05 16:33:00,34.0,32.0,-100.00,ESE,110,7.0,16.0,96,0.00,,,0.00,,2013-04-05 21:33:00,
2013-04-05 16:42:00,34.0,34.0,-100.00,ESE,105,11.0,16.0,96,0.00,,,0.00,,2013-04-05 21:42:00,
2013-04-05 16:53:00,34.0,34.0,-100.00,ESE,115,9.0,12.0,96,0.00,,,0.00,,2013-04-05 21:53:00,
2013-04-05 17:03:00,34.0,34.0,-100.00,SE,125,12.0,15.0,96,0.00,,,0.00,,2013-04-05 22:03:00,
2013-04-05 17:13:00,34.0,34.0,-100.00,ESE,120,14.0,20.0,96,0.00,,,0.00,,2013-04-05 22:13:00,
2013-04-05 17:23:00,34.0,34.0,-100.00,SE,125,12.0,19.0,96,0.00,,,0.00,,2013-04-05 22:23:00,
2013-04-05 17:33:00,34.0,34.0,-100.00,ESE,110,11.0,17.0,96,0.00,,,0.00,,2013-04-05 22:33:00,
2013-04-05 17:42:00,34.0,34.0,-100.00,ESE,105,10.0,15.0,96,0.00,,,0.00,,2013-04-05 22:42:00,
2013-04-05 17:52:00,34.0,34.0,-100.00,ESE,110,13.0,20.0,96,0.00,,,0.00,,2013-04-05 22:52:00,
2013-04-05 18:02:00,34.0,34.0,-100.00,East,100,13.0,19.0,96,0.00,,,0.00,,2013-04-05 23:02:00,
2013-04-05 18:12:00,34.0,34.0,-100.00,ESE,105,14.0,21.0,96,0.00,,,0.00,,2013-04-05 23:12:00,
2013-04-05 18:22:00,35.0,34.0,-100.00,East,100,13.0,22.0,96,0.00,,,0.00,,2013-04-05 23:22:00,
2013-04-05 18:32:00,35.0,34.0,-100.00,East,90,14.0,24.0,96,0.00,,,0.00,,2013-04-05 23:32:00,
2013-04-05 18:42:00,35.0,34.0,-100.00,East,100,14.0,22.0,95,0.00,,,0.00,,2013-04-05 23:42:00,
2013-04-05 18:52:00,35.0,34.0,-100.00,East,80,18.0,23.0,95,0.00,,,0.00,,2013-04-05 23:52:00,
2013-04-05 19:02:00,35.0,34.0,-100.00,East,90,14.0,21.0,94,0.00,,,0.00,,2013-04-06 00:02:00,
2013-04-05 19:12:00,35.0,34.0,-100.00,East,90,16.0,21.0,94,0.00,,,0.00,,2013-04-06 00:12:00,
2013-04-05 19:22:00,35.0,34.0,-100.00,East,85,16.0,21.0,93,0.00,,,0.00,,2013-04-06 00:22:00,
2013-04-05 19:32:00,35.0,34.0,-100.00,East,95,12.0,23.0,94,0.00,,,0.00,,2013-04-06 00:32:00,
2013-04-05 19:42:00,35.0,34.0,-100.00,ESE,110,11.0,17.0,94,0.00,,,0.00,,2013-04-06 00:42:00,
2013-04-05 19:52:00,35.0,34.0,-100.00,ESE,105,14.0,19.0,93,0.00,,,0.00,,2013-04-06 00:52:00,
2013-04-05 20:02:00,35.0,34.0,-100.00,East,100,12.0,19.0,94,0.00,,,0.00,,2013-04-06 01:02:00,
2013-04-05 20:12:00,35.0,34.0,-100.00,ESE,110,13.0,21.0,93,0.00,,,0.00,,2013-04-06 01:12:00,
2013-04-05 20:22:00,35.0,34.0,-100.00,ESE,120,16.0,24.0,93,0.00,,,0.00,,2013-04-06 01:22:00,
2013-04-05 20:32:00,35.0,34.0,-100.00,East,100,12.0,23.0,92,0.00,,,0.00,,2013-04-06 01:32:00,
2013-04-05 20:42:00,35.0,34.0,-100.00,ESE,105,12.0,19.0,92,0.00,,,0.00,,2013-04-06 01:42:00,
2013-04-05 20:52:00,35.0,34.0,-100.00,ESE,115,16.0,22.0,92,0.00,,,0.00,,2013-04-06 01:52:00,
2013-04-05 21:02:00,35.0,34.0,-100.00,ESE,115,12.0,19.0,91,0.00,,,0.00,,2013-04-06 02:02:00,
2013-04-05 21:12:00,35.0,34.0,-100.00,ESE,105,12.0,19.0,91,0.00,,,0.00,,2013-04-06 02:12:00,
2013-04-05 21:22:00,36.0,34.0,-100.00,ESE,105,13.0,23.0,90,0.00,,,0.00,,2013-04-06 02:22:00,
2013-04-05 21:32:00,35.0,34.0,-100.00,East,95,14.0,21.0,90,0.00,,,0.00,,2013-04-06 02:32:00,
2013-04-05 21:42:00,35.0,32.0,-100.00,ESE,105,13.0,24.0,89,0.00,,,0.00,,2013-04-06 02:42:00,
2013-04-05 21:52:00,35.0,32.0,-100.00,ESE,110,13.0,21.0,89,0.00,,,0.00,,2013-04-06 02:52:00,
2013-04-05 22:02:00,35.0,32.0,-100.00,ESE,115,12.0,20.0,89,0.00,,,0.00,,2013-04-06 03:02:00,
2013-04-05 22:12:00,35.0,32.0,-100.00,ESE,120,14.0,20.0,89,0.00,,,0.00,,2013-04-06 03:12:00,
2013-04-05 22:22:00,35.0,32.0,-100.00,ESE,110,13.0,22.0,89,0.00,,,0.00,,2013-04-06 03:22:00,
2013-04-05 22:33:00,35.0,32.0,-100.00,ESE,110,11.0,21.0,89,0.00,,,0.00,,2013-04-06 03:33:00,
2013-04-05 22:42:00,35.0,32.0,-100.00,ESE,110,14.0,22.0,88,0.00,,,0.00,,2013-04-06 03:42:00,
2013-04-05 22:53:00,36.0,32.0,-100.00,ESE,120,15.0,26.0,87,0.00,,,0.00,,2013-04-06 03:53:00,
2013-04-05 23:03:00,36.0,32.0,-100.00,East,100,16.0,22.0,86,0.00,,,0.00,,2013-04-06 04:03:00,
2013-04-05 23:13:00,36.0,32.0,-100.00,ESE,115,16.0,22.0,85,0.00,,,0.00,,2013-04-06 04:13:00,
2013-04-05 23:23:00,36.0,32.0,-100.00,ESE,110,13.0,23.0,83,0.00,,,0.00,,2013-04-06 04:23:00,
2013-04-05 23:32:00,36.0,32.0,-100.00,ESE,120,17.0,23.0,82,0.00,,,0.00,,2013-04-06 04:32:00,
2013-04-05 23:42:00,36.0,32.0,-100.00,ESE,120,18.0,24.0,82,0.00,,,0.00,,2013-04-06 04:42:00,
2013-04-05 23:52:00,36.0,32.0,-100.00,SE,125,16.0,25.0,81,0.00,,,0.00,,2013-04-06 04:52:00,